Location: Gull Harbor
(47.1000°N, 122.9000°W)
Time: 07:30:29
(UTC-07:00)

ISS - Visible Passes

Search period start: 13 July 2025 00:00
Search period end: 23 July 2025 00:00
Orbit: 413 x 417 km, 51.6° (Epoch: 13 July)

Date Brightness Start Highest point End Pass type
(mag) Time Alt. Az. Time Alt. Az. Time Alt. Az.
13 Jul -2.8 00:42:28 10° WNW 00:45:43 47° NNE 00:47:18 25° ENE visible
13 Jul -1.6 02:19:14 10° WNW 02:20:05 16° WNW 02:20:05 16° WNW visible
13 Jul -2.4 22:16:23 10° W 22:19:36 42° N 22:22:49 10° ENE visible
13 Jul -2.4 23:53:34 10° WNW 23:56:45 40° N 23:59:23 14° ENE visible
14 Jul -2.4 01:30:18 10° WNW 01:32:11 31° WNW 01:32:11 31° WNW visible
14 Jul -2.2 23:04:36 10° WNW 23:07:45 36° N 23:10:53 10° ENE visible
15 Jul -3.6 00:41:25 10° WNW 00:44:29 70° NNW 00:44:29 70° NNW visible
15 Jul -2.2 22:15:35 10° WNW 22:18:43 36° N 22:21:51 10° ENE visible
15 Jul -3.2 23:52:30 10° WNW 23:55:49 56° NNE 23:56:54 36° ENE visible
16 Jul -1.1 01:29:22 10° WNW 01:29:43 12° W 01:29:43 12° W visible
16 Jul -2.8 23:03:34 10° WNW 23:06:49 45° NNE 23:09:21 15° E visible
17 Jul -2.3 00:40:19 10° WNW 00:42:11 29° W 00:42:11 29° W visible
17 Jul -2.4 22:14:35 10° WNW 22:17:46 39° N 22:20:56 10° E visible
17 Jul -3.9 23:51:20 10° WNW 23:54:41 80° SSW 23:54:41 80° SSW visible
18 Jul -3.6 23:02:22 10° WNW 23:05:43 72° NNE 23:07:13 30° E visible
19 Jul -1.2 00:39:26 10° W 00:40:03 13° W 00:40:03 13° W visible
19 Jul -3.1 22:13:23 10° WNW 22:16:40 53° NNE 22:19:47 11° E visible
19 Jul -2.6 23:50:13 10° WNW 23:52:37 32° WSW 23:52:37 32° WSW visible
20 Jul -3.6 23:01:06 10° WNW 23:04:24 57° SSW 23:05:12 42° SSE visible
21 Jul -3.8 22:12:04 10° WNW 22:15:25 87° SSW 22:17:49 18° ESE visible
21 Jul -1.4 23:49:32 10° W 23:50:40 14° WSW 23:50:40 14° WSW visible
22 Jul -2.4 23:00:01 10° W 23:02:51 26° SW 23:03:18 25° SSW visible
